This demonstration page uses our WeatherBlox Daily Observations layout. Learn more.

38.89511, -77.03637

Hourly Observations for January 30, 2018

Temp ( °F °C ) Dew Point ( °F °C ) Humidity (%) Winds ( mph kmh ) Pressure ( in mb ) Visibility ( mi km ) Precip ( " mm )
12:52 am 00:52 Mostly Clear 40 4.4 27 -2.8 60 60 N 5 7 29.99 1016 10 16.0934 0 0
1:52 am 01:52 Mostly Cloudy 39 3.9 30 -1.1 70 70 Calm 29.98 1015 10 16.0934 0 0
2:52 am 02:52 Cloudy 38 3.3 30 -1.1 73 73 Calm 29.99 1016 10 16.0934 0 0
3:52 am 03:52 Cloudy 38 3.3 30 -1.1 73 73 W 5 7 30 1016 10 16.0934 0 0
4:52 am 04:52 Cloudy 39 3.9 32 0 76 76 WNW 16 26 30.01 1016 10 16.0934 0 0
5:52 am 05:52 Cloudy with Light Rain/Snow 36 2.2 32 0 86 86 NW 15 24 30.02 1017 10 16.0934 0 0.0254
6:52 am 06:52 Cloudy with Light Snow 35 1.7 29 -1.7 78 78 NW 13 20 30.04 1017 7 11.26538 0 0.0254
7:52 am 07:52 Cloudy 36 2.2 22 -5.6 57 57 WNW 10 17 30.06 1018 10 16.0934 0 0.0254
8:52 am 08:52 Cloudy 34 1.1 18 -7.8 52 52 NW 22 35 30.1 1019 10 16.0934 0 0
9:52 am 09:52 Cloudy 34 1.1 16 -8.9 48 48 NW 26 43 30.12 1020 10 16.0934 0 0
10:52 am 10:52 Mostly Cloudy 35 1.7 16 -8.9 46 46 NNW 23 37 30.14 1021 10 16.0934 0 0
11:52 am 11:52 Partly Cloudy 34 1.1 16 -8.9 48 48 NW 25 41 30.15 1021 10 16.0934 0 0
12:52 pm 12:52 Partly Cloudy 36 2.2 14 -10 40 40 NW 16 26 30.13 1020 10 16.0934 0 0
1:52 pm 13:52 Partly Cloudy 35 1.7 12 -11.1 38 38 NW 25 41 30.13 1020 10 16.0934 0 0
2:52 pm 14:52 Partly Cloudy 35 1.7 10 -12.2 35 35 NW 23 37 30.14 1021 10 16.0934 0 0
3:52 pm 15:52 Mostly Sunny 33 0.6 9 -12.8 36 36 WNW 21 33 30.17 1022 10 16.0934 0 0
4:52 pm 16:52 Mostly Sunny 31 -0.6 7 -13.9 36 36 NNW 21 33 30.2 1023 10 16.0934 0 0
5:52 pm 17:52 Mostly Clear 30 -1.1 6 -14.4 36 36 NNW 24 39 30.24 1024 10 16.0934 0 0
6:52 pm 18:52 Mostly Clear 28 -2.2 6 -14.4 39 39 NW 22 35 30.28 1025 10 16.0934 0 0
7:52 pm 19:52 Mostly Clear 27 -2.8 7 -13.9 43 43 NNW 20 31 30.3 1026 10 16.0934 0 0
8:52 pm 20:52 Mostly Clear 26 -3.3 5 -15 40 40 NNW 17 28 30.33 1027 10 16.0934 0 0
9:52 pm 21:52 Clear 25 -3.9 6 -14.4 44 44 NNW 17 28 30.34 1027 10 16.0934 0 0
10:52 pm 22:52 Clear 24 -4.4 5 -15 44 44 NW 17 28 30.34 1027 10 16.0934 0 0
11:52 pm 23:52 Clear 24 -4.4 5 -15 44 44 NNW 18 30 30.33 1027 10 16.0934 0 0

Powered by AerisWeather